Date,TemperatureHighF,TemperatureAvgF,TemperatureLowF,DewpointHighF,DewpointAvgF,DewpointLowF,HumidityHigh,HumidityAvg,HumidityLow,PressureMaxIn,PressureMinIn,WindSpeedMaxMPH,WindSpeedAvgMPH,GustSpeedMaxMPH,PrecipitationSumIn
2013-1-1,53,46,40,50,42,35,92,88,82,30.25,29.99,11,3,0,0.10
2013-1-2,41,38,35,35,32,29,82,79,73,30.34,30.24,7,1,0,0.00
2013-1-3,49,40,29,36,31,25,86,72,57,30.45,30.33,12,1,0,0.00
2013-1-4,47,42,38,38,32,-100,86,72,61,30.54,30.39,7,-20,0,0.23
2013-1-5,47,42,32,42,38,28,92,86,79,30.39,30.26,3,0,0,0.01
2013-1-6,56,40,28,46,33,25,91,79,59,30.40,30.29,6,1,0,0.01
2013-1-7,54,42,28,40,33,23,83,70,54,30.34,30.12,7,1,0,0.00
2013-1-8,60,52,44,57,48,36,93,87,75,30.12,29.92,11,3,0,0.83
2013-1-9,64,61,59,62,59,57,94,93,92,30.04,29.91,14,4,0,2.36
2013-1-10,63,56,43,61,52,40,94,85,69,30.02,29.95,13,3,0,0.01
2013-1-11,74,58,42,61,52,38,90,80,60,30.02,29.83,13,3,0,0.01
2013-1-12,73,66,42,69,62,38,92,88,83,29.86,29.67,16,4,0,0.12
2013-1-13,48,40,34,38,34,27,92,78,65,30.20,29.85,11,4,0,0.06
2013-1-14,46,37,32,33,29,25,80,72,63,30.26,30.16,11,5,0,0.01
2013-1-15,36,33,31,31,29,27,89,84,72,30.21,30.09,13,3,0,0.21
2013-1-16,46,36,28,31,27,21,88,70,50,30.32,30.18,10,1,0,0.00
2013-1-17,61,43,25,40,30,20,83,64,43,30.49,30.27,8,1,0,0.00
2013-1-18,62,47,31,41,34,25,80,61,43,30.53,30.35,6,1,0,0.00
2013-1-19,65,47,33,49,38,28,81,70,50,30.34,30.17,11,1,0,0.00
2013-1-20,68,52,40,56,44,35,90,76,56,30.27,30.09,10,1,0,0.01
2013-1-21,64,52,40,54,44,36,89,76,60,30.23,30.13,5,0,0,0.00
2013-1-22,68,52,38,54,44,34,89,76,59,30.33,30.20,7,1,0,0.00
2013-1-23,73,60,46,59,52,43,89,75,54,30.33,30.18,12,2,0,0.01
2013-1-24,75,65,59,65,59,54,89,81,67,30.24,30.08,11,4,0,0.00
2013-1-25,76,64,55,63,58,49,86,79,63,30.15,30.03,9,4,0,0.00
2013-1-26,64,56,52,60,53,48,92,88,81,30.19,30.08,4,0,0,0.03
2013-1-27,77,65,55,67,61,53,93,86,68,30.11,29.97,13,4,0,0.01
2013-1-28,80,72,67,68,64,60,87,76,55,30.06,29.90,20,6,0,0.01
2013-1-29,78,68,53,68,63,49,89,82,69,29.89,29.51,18,7,0,0.36
2013-1-30,54,48,33,48,32,22,83,56,39,30.19,29.74,21,4,0,0.02
2013-1-31,64,43,28,34,25,-100,78,55,28,30.28,30.18,13,-11,0,0.00
2013-2-1,67,54,39,44,37,31,74,55,40,30.35,30.19,9,2,0,0.00
2013-2-2,71,56,40,55,45,34,82,66,54,30.28,30.17,10,1,0,0.00
2013-2-3,69,54,38,43,35,31,78,52,29,30.33,30.05,7,1,0,0.00
2013-2-4,69,58,50,60,48,35,90,73,47,30.04,29.82,7,0,0,0.01
2013-2-5,73,64,60,65,60,57,93,86,73,29.98,29.86,6,0,0,0.01
2013-2-6,65,62,58,62,59,56,92,89,85,30.02,29.88,11,2,0,0.17
2013-2-7,67,61,58,60,57,52,91,87,80,30.01,29.86,10,1,0,0.00
2013-2-8,65,56,47,52,46,42,83,73,51,30.21,30.01,9,2,0,0.00
2013-2-9,66,54,46,62,50,42,92,87,81,30.14,29.81,9,4,0,0.04
2013-2-10,68,62,53,65,50,39,91,69,42,30.00,29.73,18,2,0,0.94
2013-2-11,54,52,50,48,46,44,85,79,68,30.11,30.00,10,2,0,0.13
2013-2-12,56,52,48,52,48,43,90,85,80,29.98,29.83,10,2,0,0.02
2013-2-13,52,45,34,43,37,30,84,74,63,30.14,29.99,16,3,0,0.01
2013-2-14,65,47,30,46,35,26,88,66,41,30.15,30.04,7,1,0,0.00
2013-2-15,57,47,37,41,34,28,76,62,52,30.36,30.09,14,2,0,0.00
2013-2-16,57,44,30,32,27,21,72,53,36,30.44,30.23,13,1,0,0.00
2013-2-17,70,52,31,45,36,25,79,57,32,30.23,30.00,15,5,0,0.00
2013-2-18,77,64,55,64,52,37,85,66,41,30.07,29.79,19,6,0,0.04
2013-2-19,63,54,43,37,32,28,63,45,28,30.28,30.08,13,2,0,0.00
2013-2-20,54,51,46,45,35,31,72,55,46,30.15,29.77,14,6,0,0.02
2013-2-21,71,60,48,67,47,32,91,66,35,29.87,29.64,16,4,0,0.38
2013-2-22,58,49,43,41,36,30,74,61,52,30.05,29.84,13,3,0,0.00
2013-2-23,62,48,36,43,34,27,72,60,47,30.04,29.92,6,1,0,0.00
2013-2-24,69,55,37,48,42,28,81,63,43,29.95,29.67,15,4,0,0.00
2013-2-25,64,56,44,56,41,28,85,59,34,29.72,29.51,18,6,0,0.03
2013-2-26,59,48,40,38,33,30,70,58,44,29.91,29.71,16,3,0,0.00
2013-2-27,60,48,35,43,32,24,80,56,33,30.19,29.89,12,2,0,0.00
2013-2-28,57,45,36,32,27,22,63,50,37,30.30,30.16,11,2,0,0.00
2013-3-1,60,46,35,33,28,22,62,50,35,30.29,30.16,13,1,0,0.00
2013-3-2,52,41,33,29,25,19,70,53,35,30.39,30.26,16,2,0,0.00
2013-3-3,68,50,28,44,32,19,74,52,33,30.27,29.94,18,5,0,0.00
2013-3-4,80,65,54,58,53,44,83,67,43,29.94,29.68,23,10,0,0.00
2013-3-5,63,54,42,58,34,21,84,50,30,30.33,29.73,15,4,0,0.00
2013-3-6,64,47,32,30,25,19,60,43,25,30.45,30.23,8,1,0,0.00
2013-3-7,70,52,34,43,35,22,70,53,32,30.29,30.14,11,2,0,0.00
2013-3-8,68,59,49,58,51,42,81,74,68,30.21,30.05,11,3,0,0.00
2013-3-9,76,66,59,63,59,54,87,77,65,30.05,29.72,14,6,0,0.00
2013-3-10,66,57,45,60,47,33,89,71,51,30.08,29.66,17,4,0,1.23
2013-3-11,57,47,37,35,29,22,73,52,30,30.13,30.01,12,2,0,0.00
2013-3-12,69,50,31,39,32,22,77,52,32,30.27,30.07,10,1,0,0.00
2013-3-13,69,56,41,42,36,29,64,47,33,30.44,30.27,12,1,0,0.00
2013-3-14,73,58,40,50,43,33,77,58,43,30.40,30.22,12,3,0,0.00
2013-3-15,77,64,48,58,50,43,82,62,39,30.23,29.98,15,5,0,0.00
2013-3-16,80,67,56,62,56,51,88,70,45,30.00,29.75,19,8,0,0.00
2013-3-17,79,70,64,65,61,58,86,73,58,29.81,29.64,15,5,0,0.00
2013-3-18,83,71,60,67,60,46,86,70,50,29.95,29.70,10,3,0,0.00
2013-3-19,74,64,49,53,47,42,78,56,46,30.09,29.89,12,3,0,0.04
2013-3-20,70,58,48,49,43,32,88,61,31,30.25,30.04,11,2,0,0.23
2013-3-21,71,59,45,57,46,34,77,62,46,30.04,29.64,18,4,0,0.00
2013-3-22,80,68,53,67,60,47,86,76,60,29.78,29.62,17,4,0,0.00
2013-3-23,60,54,51,55,50,47,89,86,80,29.78,29.63,7,1,0,0.01
2013-3-24,56,49,40,53,36,27,89,64,44,30.16,29.66,24,6,0,0.00
2013-3-25,56,43,33,29,25,20,68,50,33,30.41,30.16,15,2,0,0.00
2013-3-26,58,44,27,30,24,16,69,47,32,30.51,30.33,10,1,0,0.00
2013-3-27,70,50,29,43,33,21,75,54,36,30.38,30.14,12,3,0,0.00
2013-3-28,71,61,50,58,51,42,79,71,62,30.25,30.13,10,3,0,0.00
2013-3-29,73,64,56,61,57,52,88,77,62,30.20,30.08,11,3,0,0.00
2013-3-30,78,69,61,63,60,57,88,73,56,30.11,29.90,14,4,0,0.00
2013-3-31,82,71,61,67,62,56,84,75,58,29.96,29.83,13,3,0,0.00
2013-4-1,81,69,56,65,59,53,89,73,50,30.05,29.91,9,2,0,0.00
2013-4-2,71,64,59,63,60,55,91,84,75,30.01,29.83,14,2,0,0.31
2013-4-3,61,52,48,58,48,44,90,88,86,30.10,29.83,15,2,0,0.09
2013-4-4,50,47,45,44,43,42,88,84,77,30.20,30.05,10,1,0,0.00
2013-4-5,69,54,41,52,45,37,87,72,53,30.25,30.07,5,1,0,0.00
2013-4-6,74,61,48,58,52,44,86,73,57,30.07,29.88,17,4,0,0.00
2013-4-7,76,67,58,63,59,53,89,76,63,29.96,29.78,13,4,0,0.00
2013-4-8,79,71,65,66,63,59,85,75,62,29.84,29.70,15,5,0,0.00
2013-4-9,84,74,67,68,66,62,85,75,56,29.75,29.63,23,6,0,0.00
2013-4-10,72,55,43,68,52,40,89,87,82,29.91,29.66,14,4,0,0.17
2013-4-11,64,50,39,45,39,33,87,69,46,29.98,29.80,13,2,0,0.01
2013-4-12,77,57,38,52,43,34,86,62,34,30.01,29.88,5,1,0,0.00
2013-4-13,77,62,45,57,48,40,84,63,45,29.99,29.78,14,3,0,0.00
2013-4-14,79,67,53,66,59,46,87,75,65,29.79,29.61,12,4,0,0.00
2013-4-15,84,75,68,71,66,64,86,77,60,29.80,29.67,15,6,0,0.00
2013-4-16,89,78,71,71,68,65,83,72,54,29.90,29.79,17,5,0,0.00
2013-4-17,84,76,72,71,69,68,89,80,64,29.90,29.71,19,5,0,0.01
2013-4-18,73,67,49,69,62,46,89,85,81,29.91,29.64,15,6,0,0.44
2013-4-19,62,55,40,38,34,31,69,47,36,30.27,30.16,14,2,0,0.00
2013-4-20,70,53,32,43,36,27,84,56,32,30.24,30.05,8,2,0,0.00
2013-4-21,72,58,43,52,46,36,82,66,49,30.19,30.05,12,1,0,0.00
2013-4-22,78,64,47,61,54,42,86,69,53,30.11,29.88,12,2,0,0.00
2013-4-23,78,65,49,66,57,43,83,77,61,30.08,29.87,14,4,0,0.00
2013-4-24,64,52,42,47,42,38,86,71,50,30.26,30.09,16,3,0,0.03
2013-4-25,74,62,53,49,46,43,73,58,39,30.33,30.17,13,2,0,0.00
2013-4-26,82,70,60,67,58,45,81,66,57,30.19,29.97,13,3,0,0.00
2013-4-27,85,72,66,71,66,61,87,80,59,30.07,29.92,10,2,0,0.12
2013-4-28,84,72,60,66,61,57,90,71,47,30.04,29.84,10,1,0,0.01
2013-4-29,82,70,58,68,61,54,90,73,49,29.94,29.79,11,2,0,0.00
2013-4-30,82,69,58,68,62,54,91,79,57,29.84,29.71,7,1,0,0.05
2013-5-1,84,72,63,69,64,59,91,78,57,29.92,29.78,6,1,0,0.00
2013-5-2,68,58,45,63,52,39,88,81,74,30.26,29.90,17,4,0,0.01
2013-5-3,65,52,41,39,35,29,78,56,32,30.25,30.06,21,4,0,0.00
2013-5-4,78,60,36,44,37,29,78,46,25,30.05,29.86,16,3,0,0.00
2013-5-5,67,56,44,45,40,32,71,56,43,30.12,29.98,11,2,0,0.00
2013-5-6,78,61,42,55,48,37,84,64,45,30.11,29.98,10,1,0,0.00
2013-5-7,85,70,52,59,54,47,84,59,38,30.06,29.92,10,1,0,0.00
2013-5-8,86,73,58,64,58,51,85,62,41,30.02,29.88,15,4,0,0.00
2013-5-9,76,69,64,69,63,60,92,84,74,29.98,29.79,10,2,0,1.16
2013-5-10,79,71,65,71,67,63,93,87,72,30.03,29.81,9,1,0,0.07
2013-5-11,80,71,63,64,59,50,90,68,41,30.12,29.94,15,2,0,0.00
2013-5-12,78,66,55,55,50,43,76,57,35,30.22,30.09,11,1,0,0.00
2013-5-13,83,66,46,56,50,41,84,59,35,30.26,30.14,10,1,0,0.00
2013-5-14,84,71,56,64,58,51,85,65,44,30.19,30.01,14,3,0,0.00
2013-5-15,73,70,68,69,65,62,91,85,74,30.10,29.84,12,5,0,0.44
2013-5-16,82,73,62,72,67,60,91,81,71,29.94,29.74,16,5,0,0.45
2013-5-17,89,79,73,75,71,68,87,76,62,29.93,29.79,14,5,0,0.00
2013-5-18,92,81,72,76,70,67,86,72,53,29.91,29.81,13,5,0,0.00
2013-5-19,91,80,72,73,69,66,85,72,51,29.85,29.72,16,5,0,0.00
2013-5-20,90,80,71,73,70,67,87,73,56,29.85,29.69,20,5,0,0.00
2013-5-21,88,76,66,74,66,-100,89,75,60,29.84,29.63,16,-16,0,1.31
2013-5-22,85,72,62,71,66,60,92,81,60,29.91,29.81,5,0,0,0.01
2013-5-23,86,78,70,75,72,67,91,82,66,30.02,29.89,9,1,0,0.00
2013-5-24,86,76,69,75,70,63,90,82,66,30.12,29.99,14,1,0,0.09
2013-5-25,83,75,67,73,68,65,90,81,67,30.14,30.03,11,2,0,0.00
2013-5-26,87,78,72,74,69,-100,91,76,57,30.09,29.95,11,-8,0,0.02
2013-5-27,88,78,69,72,69,65,89,74,54,30.01,29.83,12,4,0,0.00
2013-5-28,88,79,72,71,68,66,84,72,50,29.91,29.79,15,4,0,0.00
2013-5-29,84,77,72,73,70,68,88,79,67,29.87,29.74,12,4,0,0.02
2013-5-30,90,80,74,76,72,69,87,77,61,29.84,29.73,15,4,0,0.00
2013-5-31,91,82,75,76,73,71,88,75,58,29.86,29.73,18,4,0,0.00
2013-6-1,92,84,77,76,74,71,84,72,57,29.86,29.77,17,4,0,0.00
2013-6-2,84,74,65,74,65,59,88,74,50,30.02,29.86,15,2,0,0.52
2013-6-3,88,74,61,67,63,56,84,68,47,29.97,29.83,4,0,0,0.01
2013-6-4,89,78,66,73,68,61,87,71,54,29.93,29.79,9,1,0,0.00
2013-6-5,90,80,69,74,70,65,88,72,53,29.88,29.69,13,2,0,0.00
2013-6-6,89,77,69,76,70,65,87,81,63,29.88,29.73,12,1,0,0.24
2013-6-7,83,72,65,66,62,59,90,73,46,29.96,29.85,10,1,0,0.00
2013-6-8,88,76,60,67,63,56,86,66,44,29.93,29.78,14,1,0,0.00
2013-6-9,91,79,68,75,69,63,88,73,49,29.93,29.82,9,1,0,0.01
2013-6-10,93,81,66,75,70,63,90,71,49,29.97,29.89,11,1,0,0.01
2013-6-11,91,78,70,76,72,66,89,81,58,30.03,29.94,16,2,0,0.81
2013-6-12,92,82,73,77,73,70,91,76,53,30.05,29.93,6,1,0,0.00
2013-6-13,93,83,72,77,73,68,89,73,53,30.05,29.87,9,1,0,0.00
2013-6-14,94,84,72,78,73,68,87,71,53,29.97,29.85,10,1,0,0.00
2013-6-15,91,81,71,77,72,66,83,73,55,29.97,29.86,14,1,0,0.00
2013-6-16,93,84,74,76,72,69,87,69,50,30.01,29.86,10,2,0,0.00
2013-6-17,94,84,77,75,73,70,86,70,51,29.99,29.82,10,3,0,0.00
2013-6-18,88,80,74,74,71,67,83,75,59,29.96,29.85,13,2,0,0.02
2013-6-19,92,81,70,76,72,66,89,75,58,29.97,29.89,12,1,0,0.00
2013-6-20,94,84,75,75,72,70,88,69,46,30.05,29.93,15,3,0,0.00
2013-6-21,94,83,72,76,71,68,88,69,45,30.07,29.95,13,2,0,0.00
2013-6-22,95,84,72,76,71,67,88,68,44,30.04,29.89,13,2,0,0.00
2013-6-23,95,84,71,75,70,67,87,65,44,29.99,29.87,13,2,0,0.00
2013-6-24,96,85,71,75,70,66,87,64,41,30.03,29.88,15,3,0,0.00
2013-6-25,96,80,74,76,62,-100,87,61,44,30.01,29.85,17,-48,0,0.00
2013-6-26,98,86,75,75,71,66,86,64,42,29.97,29.85,13,4,0,0.00
2013-6-27,99,85,75,75,70,65,86,63,36,30.02,29.86,10,2,0,0.00
2013-6-28,102,87,73,74,70,67,84,60,35,29.95,29.74,10,2,0,0.00
2013-6-29,102,88,73,73,67,59,79,52,30,29.81,29.71,12,1,0,0.00
2013-6-30,96,83,68,67,60,55,74,49,30,29.88,29.76,14,2,0,0.00
2013-7-1,89,77,65,64,58,53,69,53,36,29.95,29.86,9,2,0,0.00
2013-7-2,92,79,67,64,57,52,70,49,31,30.02,29.92,11,1,0,0.00
2013-7-3,91,78,64,67,60,52,75,55,39,30.01,29.89,7,1,0,0.00
2013-7-4,92,77,67,68,63,60,83,64,40,29.98,29.87,13,2,0,0.15
2013-7-5,93,79,63,73,65,59,88,66,40,29.98,29.84,11,1,0,0.01
2013-7-6,93,80,68,75,67,63,86,67,44,29.94,29.82,13,1,0,0.00
2013-7-7,94,82,70,75,71,65,87,70,50,29.97,29.89,11,2,0,0.00
2013-7-8,78,78,77,70,70,70,79,78,77,29.97,29.97,0,0,0,0.00
2013-7-11,100,81,75,70,69,68,80,68,38,29.90,29.85,14,3,0,0.00
2013-7-12,99,84,71,74,70,67,87,65,41,29.95,29.83,9,1,0,0.00
2013-7-13,99,86,73,76,69,59,84,59,38,29.95,29.81,9,1,0,0.00
2013-7-14,79,74,69,72,66,55,90,77,49,29.96,29.83,8,1,0,0.55
2013-7-15,77,71,66,74,68,63,92,91,87,30.05,29.91,7,0,0,0.98
2013-7-16,88,76,71,76,71,68,92,83,60,30.13,30.02,14,3,0,0.13
2013-7-17,86,78,72,77,72,69,91,83,69,30.18,30.10,15,2,0,0.00
2013-7-18,93,82,70,77,71,67,91,73,48,30.14,29.97,9,1,0,0.00
2013-7-19,83,75,71,74,70,67,90,83,69,30.04,29.93,11,0,0,0.14
2013-7-20,91,77,70,77,71,67,92,82,57,29.97,29.86,11,1,0,0.00
2013-7-21,92,80,70,78,72,67,91,78,57,29.94,29.86,16,2,0,0.00
2013-7-22,95,85,77,78,74,71,88,73,52,29.99,29.86,11,3,0,0.00
2013-7-23,96,86,78,76,72,68,86,67,42,29.99,29.82,15,4,0,0.00
2013-7-24,92,82,75,76,73,70,86,74,59,29.98,29.86,12,2,0,0.00
2013-7-25,95,84,72,77,73,69,89,70,50,30.00,29.92,6,0,0,0.00
2013-7-26,94,85,76,76,73,70,87,69,48,30.01,29.82,11,3,0,0.00
2013-7-27,85,79,73,73,71,67,86,76,64,29.96,29.86,11,2,0,0.03
2013-7-28,91,80,69,77,71,65,87,76,57,29.95,29.85,11,2,0,0.00
2013-7-29,97,84,75,77,71,63,89,67,37,30.02,29.92,16,4,0,0.00
2013-7-30,99,86,76,75,70,63,85,62,36,30.09,29.94,12,4,0,0.00
2013-7-31,99,85,75,75,70,66,86,63,39,30.07,29.89,13,3,0,0.00
2013-8-1,100,86,75,75,71,67,82,63,41,29.99,29.85,8,1,0,0.02
2013-8-2,99,88,73,74,71,67,82,60,39,29.95,29.84,11,2,0,0.00
2013-8-3,98,87,74,75,71,67,87,61,38,30.00,29.91,9,3,0,0.00
2013-8-4,98,88,76,77,73,71,86,64,41,30.07,29.89,10,3,0,0.00
2013-8-5,100,89,77,75,71,66,85,58,36,30.02,29.84,12,3,0,0.00
2013-8-6,102,88,76,76,71,67,86,60,36,29.93,29.78,14,5,0,0.00
2013-8-7,102,89,78,75,71,65,83,59,32,29.90,29.75,13,4,0,0.00
2013-8-8,102,88,74,75,70,63,87,59,28,29.89,29.75,12,3,0,0.00
2013-8-9,102,87,75,74,68,60,84,57,29,29.95,29.83,9,2,0,0.00
2013-8-10,102,86,74,76,71,63,83,63,37,30.02,29.87,10,1,0,0.02
2013-8-11,98,83,72,77,72,68,87,71,43,30.06,29.92,8,1,0,0.00
2013-8-12,97,84,72,76,71,68,89,67,43,30.05,29.90,11,2,0,0.00
2013-8-13,101,88,76,75,71,66,86,60,35,30.01,29.83,12,4,0,0.00
2013-8-14,92,80,73,78,72,68,89,78,61,29.97,29.87,8,1,0,0.52
2013-8-15,87,77,72,74,70,68,92,80,57,30.02,29.91,9,1,0,0.01
2013-8-16,91,79,69,73,68,62,84,71,53,30.00,29.89,12,1,0,0.00
2013-8-17,90,78,67,65,62,58,77,59,40,30.03,29.91,9,1,0,0.00
2013-8-18,92,78,63,70,62,57,83,60,38,30.03,29.94,13,1,0,0.00
2013-8-19,93,79,63,72,64,58,84,61,39,30.05,29.90,10,1,0,0.00
2013-8-20,95,82,69,73,65,61,82,60,35,30.01,29.91,15,1,0,0.00
2013-8-21,94,81,69,73,68,64,86,66,45,30.07,29.94,6,1,0,0.00
2013-8-22,96,84,73,76,71,67,85,66,45,30.07,29.89,13,1,0,0.00
2013-8-23,97,84,72,76,71,68,87,67,43,30.00,29.86,10,1,0,0.00
2013-8-24,95,82,73,77,72,66,90,72,49,30.03,29.91,12,1,0,0.71
2013-8-25,94,83,71,74,70,67,86,67,44,30.09,29.99,14,4,0,0.00
2013-8-26,90,79,72,73,70,68,88,77,53,30.12,30.02,16,4,0,0.00
2013-8-27,92,80,72,74,70,68,90,75,51,30.11,29.99,7,1,0,0.00
2013-8-28,94,81,69,76,70,65,88,70,48,30.08,29.95,5,0,0,0.00
2013-8-29,100,85,71,75,70,66,84,62,39,30.04,29.90,6,1,0,0.00
2013-8-30,100,87,74,74,69,64,84,58,36,29.97,29.82,7,1,0,0.00
2013-8-31,100,87,74,76,71,68,86,62,38,29.91,29.77,11,2,0,0.00
2013-9-1,98,86,75,76,70,65,84,61,40,29.89,29.76,11,2,0,0.00
2013-9-2,96,84,74,76,72,66,86,68,43,29.95,29.80,11,2,0,0.25
2013-9-3,100,85,76,75,72,70,83,67,40,29.94,29.82,16,1,0,0.00
2013-9-4,99,80,71,76,62,-100,88,62,43,30.01,29.89,10,-51,0,0.00
2013-9-5,97,83,72,76,70,67,86,67,41,30.08,29.94,10,1,0,0.01
2013-9-6,98,84,71,77,70,65,89,66,35,30.06,29.90,11,1,0,0.01
2013-9-7,95,78,70,75,70,66,88,76,45,30.02,29.89,17,1,0,0.10
2013-9-8,94,79,67,76,68,64,91,73,42,29.98,29.85,10,2,0,0.01
2013-9-9,94,80,67,74,68,63,88,70,44,29.99,29.89,15,2,0,0.00
2013-9-10,92,78,70,75,69,66,89,73,44,30.07,29.96,12,2,0,0.00
2013-9-11,95,81,69,75,68,65,89,67,40,30.09,29.95,10,2,0,0.00
2013-9-12,95,81,69,74,67,63,86,65,41,30.05,29.88,10,1,0,0.00
2013-9-13,98,84,68,72,66,62,84,59,37,29.93,29.76,10,1,0,0.00
2013-9-14,95,84,75,70,68,65,78,59,41,29.92,29.81,10,2,0,0.00
2013-9-15,95,82,72,73,69,66,85,66,44,29.99,29.90,14,2,0,0.00
2013-9-16,95,83,72,74,67,61,86,62,36,30.05,29.92,12,1,0,0.00
2013-9-17,94,82,70,74,68,64,83,62,43,30.05,29.89,9,1,0,0.00
2013-9-18,96,83,70,74,68,65,83,63,42,29.99,29.84,12,2,0,0.00
2013-9-19,92,80,72,76,71,68,88,75,53,29.95,29.82,12,2,0,0.00
2013-9-20,77,74,70,75,71,68,93,91,86,29.87,29.74,10,2,0,3.62
2013-9-21,81,72,66,69,65,55,93,79,59,29.88,29.79,13,3,0,0.01
2013-9-22,82,69,57,58,54,50,82,60,34,29.89,29.75,12,2,0,0.00
2013-9-23,86,73,61,67,60,52,79,64,51,29.83,29.72,7,1,0,0.00
2013-9-24,93,78,66,72,64,59,87,66,37,29.87,29.78,10,1,0,0.00
2013-9-25,94,75,60,65,57,52,83,57,27,29.87,29.75,3,0,0,0.00
2013-9-26,92,76,59,69,59,52,84,59,34,29.89,29.79,14,1,0,0.00
2013-9-27,86,77,65,74,67,57,83,72,62,29.93,29.84,13,3,0,0.00
2013-9-28,88,77,70,77,72,67,90,84,71,29.98,29.88,8,2,0,0.98
2013-9-29,75,72,68,71,69,65,93,90,86,30.00,29.89,5,0,0,0.24
2013-9-30,84,76,68,74,70,66,92,83,67,29.90,29.79,6,0,0,0.01
2013-10-1,87,78,74,76,72,70,91,83,64,29.91,29.83,13,2,0,0.00
2013-10-2,82,75,72,76,71,69,91,87,71,29.97,29.87,10,1,0,0.13
2013-10-3,87,78,73,76,73,70,92,84,67,29.94,29.82,9,2,0,0.00
2013-10-4,87,79,71,75,70,68,91,77,59,29.91,29.84,11,3,0,0.00
2013-10-5,88,74,59,75,66,47,91,78,57,30.01,29.86,17,2,0,0.00
2013-10-6,78,64,51,54,46,38,77,56,29,30.11,29.98,10,2,0,0.00
2013-10-7,73,50,44,55,42,38,83,75,53,30.14,30.06,0,0,0,0.02